Time,TemperatureF,DewpointF,PressureIn,WindDirection,WindDirectionDegrees,WindSpeedMPH,WindSpeedGustMPH,Humidity,HourlyPrecipIn,Conditions,Clouds,dailyrainin,SolarRadiationWatts/m^2,SoftwareType,DateUTC
2015-08-02 00:00:00,64.2,57.2,29.80,South,182,0.0,0.0,78,0.00,,,0.00,0,Wunderground v.1.15,2015-08-02 04:00:00,
2015-08-02 00:10:00,63.9,56.9,29.80,South,182,0.0,0.0,78,0.00,,,0.00,0,Wunderground v.1.15,2015-08-02 04:10:00,
2015-08-02 00:20:00,63.6,57.0,29.79,South,182,0.0,0.0,79,0.00,,,0.00,0,Wunderground v.1.15,2015-08-02 04:20:00,
2015-08-02 00:30:00,63.1,56.8,29.80,South,182,0.0,0.0,80,0.00,,,0.00,0,Wunderground v.1.15,2015-08-02 04:30:00,
2015-08-02 00:40:00,62.7,56.8,29.80,South,182,0.0,0.0,81,0.00,,,0.00,0,Wunderground v.1.15,2015-08-02 04:40:00,
2015-08-02 00:45:00,62.5,56.6,29.79,South,182,0.0,0.0,81,0.00,,,0.00,0,Wunderground v.1.15,2015-08-02 04:45:00,
2015-08-02 00:55:00,62.2,56.6,29.79,South,182,0.0,0.0,82,0.00,,,0.00,0,Wunderground v.1.15,2015-08-02 04:55:00,
2015-08-02 01:00:00,62.0,56.8,29.79,South,182,0.0,0.0,83,0.00,,,0.00,0,Wunderground v.1.15,2015-08-02 05:00:00,
2015-08-02 01:10:00,61.8,56.9,29.79,South,182,0.0,0.0,84,0.00,,,0.00,0,Wunderground v.1.15,2015-08-02 05:10:00,
2015-08-02 01:15:00,61.6,56.7,29.79,South,182,0.0,0.0,84,0.00,,,0.00,0,Wunderground v.1.15,2015-08-02 05:15:00,
2015-08-02 01:25:00,61.4,56.8,29.79,South,182,0.0,0.0,85,0.00,,,0.00,0,Wunderground v.1.15,2015-08-02 05:25:00,
2015-08-02 01:35:00,61.2,57.3,29.79,South,182,0.0,0.0,87,0.00,,,0.00,0,Wunderground v.1.15,2015-08-02 05:35:00,
2015-08-02 01:45:00,61.0,57.1,29.79,South,182,0.0,0.0,87,0.00,,,0.00,0,Wunderground v.1.15,2015-08-02 05:45:00,
2015-08-02 01:55:00,60.7,56.8,29.79,South,182,0.0,0.0,87,0.00,,,0.00,0,Wunderground v.1.15,2015-08-02 05:55:00,
2015-08-02 02:00:00,60.6,57.0,29.79,South,182,0.0,0.0,88,0.00,,,0.00,0,Wunderground v.1.15,2015-08-02 06:00:00,
2015-08-02 02:10:00,60.5,56.9,29.79,South,182,0.0,0.0,88,0.00,,,0.00,0,Wunderground v.1.15,2015-08-02 06:10:00,
2015-08-02 02:20:00,60.5,57.2,29.78,South,182,0.0,0.0,89,0.00,,,0.00,0,Wunderground v.1.15,2015-08-02 06:20:00,
2015-08-02 02:30:00,60.4,57.1,29.78,South,182,0.0,0.0,89,0.00,,,0.00,0,Wunderground v.1.15,2015-08-02 06:30:00,
2015-08-02 02:40:00,60.2,57.3,29.78,South,182,0.0,0.0,90,0.00,,,0.00,0,Wunderground v.1.15,2015-08-02 06:40:00,
2015-08-02 02:45:00,60.3,57.4,29.78,South,182,0.0,0.0,90,0.00,,,0.00,0,Wunderground v.1.15,2015-08-02 06:45:00,
2015-08-02 02:55:00,60.1,57.2,29.78,South,182,0.0,0.0,90,0.00,,,0.00,0,Wunderground v.1.15,2015-08-02 06:55:00,
2015-08-02 03:00:00,59.9,57.0,29.78,South,182,0.0,0.0,90,0.00,,,0.00,0,Wunderground v.1.15,2015-08-02 07:00:00,
2015-08-02 03:10:00,59.7,56.8,29.78,South,182,0.0,0.0,90,0.00,,,0.00,0,Wunderground v.1.15,2015-08-02 07:10:00,
2015-08-02 03:15:00,59.6,57.0,29.78,South,182,0.0,0.0,91,0.00,,,0.00,0,Wunderground v.1.15,2015-08-02 07:15:00,
2015-08-02 03:25:00,59.7,57.1,29.78,South,182,0.0,0.0,91,0.00,,,0.00,0,Wunderground v.1.15,2015-08-02 07:25:00,
2015-08-02 03:35:00,59.8,57.2,29.78,South,182,0.0,0.0,91,0.00,,,0.00,0,Wunderground v.1.15,2015-08-02 07:35:00,
2015-08-02 03:45:00,59.7,57.1,29.77,South,182,0.0,0.0,91,0.00,,,0.00,0,Wunderground v.1.15,2015-08-02 07:45:00,
2015-08-02 03:55:00,59.6,57.3,29.77,South,182,0.0,0.0,92,0.00,,,0.00,0,Wunderground v.1.15,2015-08-02 07:55:00,
2015-08-02 04:00:00,59.7,57.4,29.77,South,182,0.0,0.0,92,0.00,,,0.00,0,Wunderground v.1.15,2015-08-02 08:00:00,
2015-08-02 04:10:00,59.8,57.5,29.77,South,182,0.0,0.0,92,0.00,,,0.00,0,Wunderground v.1.15,2015-08-02 08:10:00,
2015-08-02 04:20:00,59.8,57.5,29.78,South,182,0.0,0.0,92,0.00,,,0.00,0,Wunderground v.1.15,2015-08-02 08:20:00,
2015-08-02 04:30:00,60.0,58.0,29.78,South,182,0.0,0.0,93,0.00,,,0.00,0,Wunderground v.1.15,2015-08-02 08:30:00,
2015-08-02 04:40:00,60.1,58.1,29.77,South,182,0.0,0.0,93,0.00,,,0.00,0,Wunderground v.1.15,2015-08-02 08:40:00,
2015-08-02 04:50:00,59.9,57.9,29.77,South,182,0.0,0.0,93,0.00,,,0.00,0,Wunderground v.1.15,2015-08-02 08:50:00,
2015-08-02 05:00:00,59.7,57.7,29.77,South,182,0.0,0.0,93,0.00,,,0.00,0,Wunderground v.1.15,2015-08-02 09:00:00,
2015-08-02 05:10:00,59.7,57.7,29.77,South,182,0.0,0.0,93,0.00,,,0.00,0,Wunderground v.1.15,2015-08-02 09:10:00,
2015-08-02 05:20:00,59.8,57.8,29.77,South,182,0.0,0.0,93,0.00,,,0.00,0,Wunderground v.1.15,2015-08-02 09:20:00,
2015-08-02 05:30:00,59.7,58.0,29.77,South,182,0.0,0.0,94,0.00,,,0.00,0,Wunderground v.1.15,2015-08-02 09:30:00,
2015-08-02 05:40:00,59.8,58.1,29.77,South,182,0.0,0.0,94,0.00,,,0.00,0,Wunderground v.1.15,2015-08-02 09:40:00,
2015-08-02 05:45:00,59.9,58.2,29.77,South,182,0.0,0.0,94,0.00,,,0.00,0,Wunderground v.1.15,2015-08-02 09:45:00,
2015-08-02 05:55:00,60.1,58.4,29.77,South,182,0.0,0.0,94,0.00,,,0.00,0,Wunderground v.1.15,2015-08-02 09:55:00,
2015-08-02 06:00:00,60.2,58.5,29.77,South,182,0.0,0.0,94,0.00,,,0.00,0,Wunderground v.1.15,2015-08-02 10:00:00,
2015-08-02 06:10:00,60.4,58.7,29.77,South,182,0.0,0.0,94,0.00,,,0.00,0,Wunderground v.1.15,2015-08-02 10:10:00,
2015-08-02 06:20:00,60.7,59.0,29.77,South,182,0.0,0.0,94,0.00,,,0.00,0,Wunderground v.1.15,2015-08-02 10:20:00,
2015-08-02 06:30:00,61.3,59.6,29.77,South,182,0.0,0.0,94,0.00,,,0.00,0,Wunderground v.1.15,2015-08-02 10:30:00,
2015-08-02 06:40:00,61.9,60.2,29.77,South,182,0.0,0.0,94,0.00,,,0.00,11,Wunderground v.1.15,2015-08-02 10:40:00,
2015-08-02 06:50:00,62.6,60.8,29.77,South,182,0.0,0.0,94,0.00,,,0.00,21,Wunderground v.1.15,2015-08-02 10:50:00,
2015-08-02 07:00:00,63.4,61.6,29.77,South,182,0.0,0.0,94,0.00,,,0.00,23,Wunderground v.1.15,2015-08-02 11:00:00,
2015-08-02 07:10:00,64.0,61.6,29.77,South,182,0.0,0.0,92,0.00,,,0.00,25,Wunderground v.1.15,2015-08-02 11:10:00,
2015-08-02 07:20:00,64.6,62.2,29.77,South,182,0.0,0.0,92,0.00,,,0.00,33,Wunderground v.1.15,2015-08-02 11:20:00,
2015-08-02 07:30:00,65.1,62.4,29.77,South,179,0.0,0.0,91,0.00,,,0.00,39,Wunderground v.1.15,2015-08-02 11:30:00,
2015-08-02 07:40:00,65.6,62.9,29.77,SSE,161,0.0,0.0,91,0.00,,,0.00,44,Wunderground v.1.15,2015-08-02 11:40:00,
2015-08-02 07:50:00,66.0,63.0,29.77,SSE,161,0.0,0.0,90,0.00,,,0.00,49,Wunderground v.1.15,2015-08-02 11:50:00,
2015-08-02 07:55:00,66.2,63.2,29.77,SSE,161,0.0,0.0,90,0.00,,,0.00,49,Wunderground v.1.15,2015-08-02 11:55:00,
2015-08-02 08:00:00,66.4,63.4,29.77,SSE,161,0.0,0.0,90,0.00,,,0.00,51,Wunderground v.1.15,2015-08-02 12:00:00,
2015-08-02 08:10:00,66.7,63.7,29.77,SSE,153,0.0,0.0,90,0.00,,,0.00,88,Wunderground v.1.15,2015-08-02 12:10:00,
2015-08-02 08:15:00,67.1,64.1,29.76,South,182,0.0,1.0,90,0.00,,,0.00,67,Wunderground v.1.15,2015-08-02 12:15:00,
2015-08-02 08:25:00,67.6,64.6,29.76,WSW,249,0.0,1.0,90,0.00,,,0.00,74,Wunderground v.1.15,2015-08-02 12:25:00,
2015-08-02 08:35:00,68.4,65.0,29.76,ESE,118,0.0,1.0,89,0.00,,,0.00,70,Wunderground v.1.15,2015-08-02 12:35:00,
2015-08-02 08:45:00,69.2,65.8,29.76,SSE,151,1.0,2.0,89,0.00,,,0.00,84,Wunderground v.1.15,2015-08-02 12:45:00,
2015-08-02 08:55:00,70.0,66.3,29.75,ENE,67,0.0,1.0,88,0.00,,,0.00,190,Wunderground v.1.15,2015-08-02 12:55:00,
2015-08-02 09:00:00,70.5,66.8,29.75,ENE,57,0.0,0.0,88,0.00,,,0.00,60,Wunderground v.1.15,2015-08-02 13:00:00,
2015-08-02 09:10:00,71.4,67.0,29.74,SSE,164,1.0,1.0,86,0.00,,,0.00,63,Wunderground v.1.15,2015-08-02 13:10:00,
2015-08-02 09:20:00,72.4,67.6,29.74,NE,55,1.0,2.0,85,0.00,,,0.00,67,Wunderground v.1.15,2015-08-02 13:20:00,
2015-08-02 09:30:00,73.2,68.1,29.74,South,180,1.0,1.0,84,0.00,,,0.00,163,Wunderground v.1.15,2015-08-02 13:30:00,
2015-08-02 09:40:00,74.2,68.7,29.73,East,98,1.0,1.0,83,0.00,,,0.00,83,Wunderground v.1.15,2015-08-02 13:40:00,
2015-08-02 09:45:00,74.6,68.4,29.73,East,98,1.0,1.0,81,0.00,,,0.00,67,Wunderground v.1.15,2015-08-02 13:45:00,
2015-08-02 09:55:00,75.5,68.9,29.72,South,183,1.0,4.0,80,0.00,,,0.00,446,Wunderground v.1.15,2015-08-02 13:55:00,
2015-08-02 10:00:00,76.1,69.1,29.72,SE,141,1.0,1.0,79,0.00,,,0.00,457,Wunderground v.1.15,2015-08-02 14:00:00,
2015-08-02 10:10:00,77.3,69.5,29.72,South,182,1.0,1.0,77,0.00,,,0.00,70,Wunderground v.1.15,2015-08-02 14:10:00,
2015-08-02 10:20:00,78.4,69.4,29.72,SSE,154,1.0,1.0,74,0.00,,,0.00,130,Wunderground v.1.15,2015-08-02 14:20:00,
2015-08-02 10:25:00,78.9,69.5,29.71,ENE,63,1.0,1.0,73,0.00,,,0.00,420,Wunderground v.1.15,2015-08-02 14:25:00,
2015-08-02 10:35:00,79.7,70.3,29.72,ESE,107,2.0,2.0,73,0.00,,,0.00,297,Wunderground v.1.15,2015-08-02 14:35:00,
2015-08-02 10:40:00,80.1,69.8,29.72,SSE,160,1.0,3.0,71,0.00,,,0.00,561,Wunderground v.1.15,2015-08-02 14:40:00,
2015-08-02 10:50:00,80.7,70.0,29.72,South,175,2.0,3.0,70,0.00,,,0.00,631,Wunderground v.1.15,2015-08-02 14:50:00,
2015-08-02 10:55:00,80.9,70.6,29.71,South,182,2.0,3.0,71,0.00,,,0.00,643,Wunderground v.1.15,2015-08-02 14:55:00,
2015-08-02 11:00:00,81.6,70.9,29.71,East,92,2.0,2.0,70,0.00,,,0.00,654,Wunderground v.1.15,2015-08-02 15:00:00,
2015-08-02 11:10:00,82.4,70.8,29.71,SSW,202,2.0,2.0,68,0.00,,,0.00,675,Wunderground v.1.15,2015-08-02 15:10:00,
2015-08-02 11:20:00,83.3,71.2,29.71,South,187,2.0,2.0,67,0.00,,,0.00,693,Wunderground v.1.15,2015-08-02 15:20:00,
2015-08-02 11:30:00,84.2,71.6,29.71,SSE,162,2.0,2.0,66,0.00,,,0.00,710,Wunderground v.1.15,2015-08-02 15:30:00,
2015-08-02 19:20:00,87.4,65.3,29.52,NE,46,3.0,11.0,48,0.00,,,0.00,95,Wunderground v.1.15,2015-08-02 23:20:00,
2015-08-02 19:26:00,87.3,65.2,29.52,SSW,207,4.0,4.0,48,0.00,,,0.00,86,Wunderground v.1.15,2015-08-02 23:26:00,
2015-08-02 19:35:00,87.0,65.5,29.52,North,5,3.0,5.0,49,0.00,,,0.00,70,Wunderground v.1.15,2015-08-02 23:35:00,
2015-08-02 19:45:00,86.6,66.3,29.53,East,86,4.0,4.0,51,0.00,,,0.00,58,Wunderground v.1.15,2015-08-02 23:45:00,
2015-08-02 19:55:00,86.3,66.6,29.52,East,86,3.0,4.0,52,0.00,,,0.00,46,Wunderground v.1.15,2015-08-02 23:55:00,
2015-08-02 20:00:00,86.1,67.0,29.52,SE,132,2.0,4.0,53,0.00,,,0.00,40,Wunderground v.1.15,2015-08-03 00:00:00,
2015-08-02 20:10:00,85.8,66.7,29.52,ESE,111,3.0,3.0,53,0.00,,,0.00,32,Wunderground v.1.15,2015-08-03 00:10:00,
2015-08-02 20:20:00,85.5,67.0,29.51,NNE,16,2.0,2.0,54,0.00,,,0.00,21,Wunderground v.1.15,2015-08-03 00:20:00,
2015-08-02 20:30:00,85.2,66.1,29.52,West,265,2.0,2.0,53,0.00,,,0.00,12,Wunderground v.1.15,2015-08-03 00:30:00,
2015-08-02 20:40:00,84.8,65.8,29.51,SSW,192,2.0,2.0,53,0.00,,,0.00,5,Wunderground v.1.15,2015-08-03 00:40:00,
2015-08-02 20:50:00,84.4,65.9,29.52,NNW,340,1.0,2.0,54,0.00,,,0.00,0,Wunderground v.1.15,2015-08-03 00:50:00,
2015-08-02 21:00:00,84.0,66.1,29.51,SE,141,2.0,2.0,55,0.00,,,0.00,0,Wunderground v.1.15,2015-08-03 01:00:00,
2015-08-02 21:10:00,83.7,66.3,29.52,NNW,338,2.0,3.0,56,0.00,,,0.00,0,Wunderground v.1.15,2015-08-03 01:10:00,
2015-08-02 21:20:00,83.4,66.6,29.53,SSE,149,2.0,2.0,57,0.00,,,0.00,0,Wunderground v.1.15,2015-08-03 01:20:00,
2015-08-02 21:30:00,83.0,67.2,29.55,SE,142,1.0,1.0,59,0.00,,,0.00,0,Wunderground v.1.15,2015-08-03 01:30:00,
2015-08-02 21:40:00,81.7,62.4,29.62,SW,225,2.0,3.0,52,0.00,,,0.00,0,Wunderground v.1.15,2015-08-03 01:40:00,
2015-08-02 21:50:00,76.8,60.9,29.66,WNW,288,2.0,4.0,58,0.00,,,0.00,0,Wunderground v.1.15,2015-08-03 01:50:00,
2015-08-02 22:00:00,73.1,62.3,29.65,SW,228,2.0,2.0,69,0.75,,,0.05,0,Wunderground v.1.15,2015-08-03 02:00:00,
2015-08-02 22:10:00,69.4,61.9,29.67,SSW,204,1.0,1.0,77,1.26,,,0.29,0,Wunderground v.1.15,2015-08-03 02:10:00,
2015-08-02 22:20:00,66.8,61.8,29.64,WSW,240,0.0,0.0,84,0.91,,,0.50,0,Wunderground v.1.15,2015-08-03 02:20:00,
2015-08-02 22:30:00,65.4,61.8,29.64,South,188,0.0,0.0,88,0.61,,,0.62,0,Wunderground v.1.15,2015-08-03 02:30:00,
2015-08-02 22:35:00,65.1,61.8,29.65,South,188,0.0,0.0,89,0.39,,,0.65,0,Wunderground v.1.15,2015-08-03 02:35:00,
2015-08-02 22:45:00,64.6,61.6,29.63,SE,125,0.0,1.0,90,0.19,,,0.69,0,Wunderground v.1.15,2015-08-03 02:45:00,
2015-08-02 22:55:00,64.3,61.9,29.61,ENE,72,1.0,1.0,92,0.21,,,0.72,0,Wunderground v.1.15,2015-08-03 02:55:00,
2015-08-02 23:00:00,64.2,61.8,29.60,ENE,74,1.0,1.0,92,0.16,,,0.73,0,Wunderground v.1.15,2015-08-03 03:00:00,
2015-08-02 23:10:00,64.1,61.7,29.56,NE,46,1.0,4.0,92,0.08,,,0.74,0,Wunderground v.1.15,2015-08-03 03:10:00,
2015-08-02 23:20:00,64.0,61.9,29.57,ENE,76,2.0,2.0,93,0.00,,,0.74,0,Wunderground v.1.15,2015-08-03 03:20:00,
2015-08-02 23:25:00,63.9,61.8,29.55,ENE,74,2.0,2.0,93,0.00,,,0.74,0,Wunderground v.1.15,2015-08-03 03:25:00,
2015-08-02 23:35:00,63.7,61.9,29.58,East,81,2.0,3.0,94,0.00,,,0.74,0,Wunderground v.1.15,2015-08-03 03:35:00,
2015-08-02 23:45:00,63.7,61.9,29.58,NE,55,1.0,2.0,94,0.00,,,0.75,0,Wunderground v.1.15,2015-08-03 03:45:00,
2015-08-02 23:55:00,63.7,61.9,29.58,NE,56,2.0,5.0,94,0.00,,,0.75,0,Wunderground v.1.15,2015-08-03 03:55:00,